GFSNIL_sfc_thetae_000.txt.gz
Theta_e
287 286 286 284 284 284 283 283 282 281 280 279 279 279 279 278 278 278 279 278 278 279
287 286 286 284 284 284 283 281 280 280 279 279 279 279 278 278 278 278 278 278 279 278
286 285 285 282 282 282 281 280 279 279 279 278 278 278 277 277 277 277 277 278 277 277
285 285 284 282 281 280 280 279 279 279 278 277 277 277 276 276 276 276 275 275 275 275
285 284 283 282 281 280 280 279 279 278 277 277 276 276 276 275 275 273 273 274 273 272
283 283 283 282 280 279 279 278 277 277 277 276 276 275 275 275 274 273 274 273 272 272
283 283 283 282 280 279 278 277 277 277 276 275 275 274 274 274 273 273 273 273 272 272
284 283 282 279 279 278 278 277 276 275 274 274 274 274 274 274 272 271 271 272 272 272
282 281 280 278 278 277 276 275 275 274 273 272 274 278 278 275 272 272 271 271 271 272
281 279 278 277 276 275 275 274 273 272 272 271 272 279 280 277 273 272 272 272 272 272
279 278 276 275 275 275 274 273 273 271 272 271 272 280 281 278 274 273 272 272 272 271
279 277 275 275 275 274 273 273 272 272 271 270 271 281 281 279 273 273 272 273 273 272
278 277 275 275 274 274 273 273 272 270 271 271 270 280 280 278 272 270 271 272 273 275
274 274 273 273 273 272 272 271 271 269 269 270 269 275 280 280 272 270 269 270 270 273

GFSNIL_sfc_thetae_003.txt.gz
Theta_e
288 287 286 285 285 284 284 283 282 281 280 280 280 280 280 280 279 279 279 278 278 279
287 287 286 284 284 284 283 283 281 281 280 279 280 280 279 279 278 278 278 278 278 278
287 287 286 283 283 283 283 281 280 280 280 279 279 279 279 278 278 278 278 278 278 278
286 287 285 283 283 283 282 280 280 280 279 279 279 278 278 277 277 277 277 277 277 276
286 285 284 283 282 283 281 280 280 279 279 279 279 278 278 276 277 276 275 275 275 273
285 284 284 284 282 281 281 280 280 279 279 278 278 277 277 277 276 276 276 275 274 272
285 285 285 285 282 281 281 279 279 279 279 278 278 277 277 276 275 275 275 275 274 272
286 286 285 284 281 281 280 280 279 278 278 277 277 277 276 276 274 273 272 272 272 272
286 284 284 284 281 280 279 278 278 277 276 276 277 281 281 276 273 273 272 271 271 272
282 282 282 281 280 279 278 277 277 276 276 275 276 281 282 279 274 273 272 271 271 272
282 283 280 279 278 278 278 277 276 276 275 275 275 282 282 280 274 273 272 272 272 272
280 280 277 278 277 277 277 276 276 275 274 274 274 282 283 280 273 273 272 273 273 272
276 275 277 277 276 276 276 275 275 274 274 274 273 282 283 279 273 271 271 272 273 274
273 274 276 276 275 274 274 274 273 272 272 272 273 279 283 282 273 271 271 271 271 273

GFSNIL_sfc_thetae_006.txt.gz
Theta_e
287 286 287 285 286 285 285 285 283 282 282 281 281 281 281 280 280 279 279 278 278 279
286 286 286 284 284 285 285 284 282 282 281 280 280 280 280 280 279 279 279 278 278 278
287 287 286 284 284 283 284 282 281 281 281 280 280 280 280 279 279 278 278 278 278 278
284 285 284 283 284 284 282 281 281 281 281 280 280 280 280 279 278 278 277 278 278 277
284 283 283 283 283 283 282 281 281 281 280 280 280 280 280 279 278 278 277 277 277 276
284 283 284 284 283 283 282 281 281 281 280 280 280 279 280 279 278 278 278 277 276 275
283 284 285 285 284 282 282 281 281 281 280 280 280 280 279 279 278 278 277 277 276 274
285 284 284 284 284 281 282 282 281 280 280 280 280 279 279 279 278 277 276 275 275 274
285 283 282 284 283 280 280 280 280 280 279 278 279 283 284 280 278 277 275 274 274 273
283 283 284 281 280 280 279 280 279 279 279 278 279 284 285 284 278 277 275 274 273 272
282 281 281 278 279 278 278 278 278 279 278 279 278 284 286 284 277 276 275 274 274 273
281 280 279 277 277 278 278 278 279 279 278 278 278 283 286 283 276 276 274 274 274 274
279 277 277 276 274 275 278 278 278 277 278 278 277 282 286 283 275 274 273 273 274 276
281 278 277 277 273 274 275 274 273 274 275 276 276 278 285 285 275 274 273 272 272 273

GFSNIL_sfc_thetae_009.txt.gz
Theta_e
290 290 290 289 290 289 288 288 288 287 287 287 286 285 285 286 286 285 286 285 284 284
288 288 288 287 288 289 289 288 288 286 285 285 285 284 284 284 284 284 285 284 284 284
288 288 287 286 286 286 287 286 285 285 285 285 284 284 284 284 283 283 283 283 283 283
287 287 287 285 285 286 285 285 284 284 284 283 283 283 283 283 282 282 282 282 282 281
287 286 285 286 285 285 284 284 284 284 283 283 283 283 282 282 282 282 281 281 280 280
287 286 285 285 285 284 285 284 284 283 283 282 282 282 282 283 282 282 282 281 280 280
286 286 286 286 286 284 284 284 284 283 283 283 282 282 282 282 282 281 281 281 281 280
285 285 285 285 285 285 283 284 283 283 283 283 282 282 281 282 282 281 281 280 280 279
284 283 283 284 284 284 283 282 283 282 282 282 281 285 286 283 281 281 280 278 279 279
283 282 281 282 282 282 282 282 281 282 282 281 282 286 287 286 281 280 280 279 278 276
279 279 280 280 281 281 281 281 280 281 281 281 282 285 287 286 282 281 280 279 278 277
277 276 279 279 279 280 279 279 280 281 281 280 281 284 286 286 283 280 279 278 278 277
275 275 277 277 278 279 278 279 279 279 279 280 280 283 284 286 283 279 278 277 276 278
273 274 274 275 277 277 277 278 277 277 277 277 279 279 284 286 284 279 277 276 275 276

GFSNIL_sfc_thetae_012.txt.gz
Theta_e
294 295 296 296 297 297 297 296 296 295 295 295 295 294 294 293 293 293 293 293 294 293
293 293 293 294 295 295 296 295 296 294 293 294 294 293 293 291 291 291 291 292 293 292
293 292 292 293 292 292 293 293 293 293 292 293 293 292 291 291 291 290 290 290 290 290
292 292 291 291 292 291 292 291 291 291 291 291 291 291 290 290 290 288 289 288 288 288
289 289 289 290 290 291 290 291 290 290 289 289 289 289 289 288 288 287 287 287 286 286
287 287 286 287 289 290 289 288 289 289 288 288 288 287 287 288 287 286 287 287 285 285
286 285 285 285 286 287 288 288 287 288 288 287 287 286 287 286 286 286 286 287 285 284
285 285 284 284 285 285 285 286 287 286 286 287 286 285 286 285 285 285 285 285 284 284
284 283 282 282 283 283 284 284 285 284 284 285 284 287 288 286 284 284 283 284 284 283
282 281 280 280 282 282 281 283 282 283 284 284 285 287 288 287 285 284 284 283 283 282
280 279 278 278 280 281 281 281 281 282 283 283 284 286 287 287 285 284 284 283 283 282
279 277 276 275 277 279 279 280 280 281 282 283 283 285 286 286 285 284 284 283 283 283
278 275 274 275 275 277 277 278 280 280 281 282 282 284 285 285 285 284 284 284 282 283
276 274 274 274 274 274 274 275 275 277 280 281 281 282 284 285 284 283 284 283 282 281

GFSNIL_sfc_thetae_018.txt.gz
Theta_e
289 290 290 290 289 289 289 290 291 292 293 294 294 293 292 290 289 289 289 288 288 290
286 286 287 288 289 289 289 290 289 289 289 290 291 291 290 288 287 288 288 288 288 287
285 285 285 285 284 286 288 288 288 288 288 289 288 289 288 287 287 287 286 287 287 287
284 285 284 283 283 284 284 285 286 287 286 286 287 287 287 286 287 286 286 285 285 286
284 283 282 282 282 282 283 284 284 285 286 285 285 286 285 285 286 285 284 285 284 285
281 281 281 280 280 281 281 282 282 284 284 284 285 285 285 285 285 285 285 285 285 286
280 280 280 280 280 279 279 280 281 281 283 283 283 284 284 284 285 285 286 285 285 285
281 280 279 279 278 279 278 279 280 280 280 281 282 283 283 284 284 284 284 285 285 285
280 280 279 279 279 278 278 277 278 279 279 278 281 284 286 285 284 285 284 284 284 285
278 278 279 278 278 278 277 277 276 276 277 277 278 283 284 285 283 283 284 284 284 284
277 277 277 277 277 277 277 276 275 275 276 276 277 281 283 284 282 282 282 283 284 284
275 274 274 273 274 274 275 275 274 275 274 273 274 279 280 280 278 279 280 282 283 283
272 270 269 270 270 271 271 272 273 273 273 273 272 276 277 278 275 275 277 279 281 283
268 266 266 266 266 266 266 267 267 268 269 269 270 271 275 276 274 274 275 277 279 281

GFSNIL_sfc_thetae_021.txt.gz
Theta_e
285 285 285 285 286 286 287 287 288 288 288 289 290 291 291 289 288 288 289 290 290 290
284 283 282 282 283 284 284 286 286 286 286 287 287 287 288 287 286 286 286 288 288 289
284 283 282 282 281 281 283 283 283 284 285 285 285 285 285 285 285 285 285 286 285 287
284 283 282 280 281 281 281 282 282 283 282 282 283 284 284 284 284 284 285 285 284 285
283 283 281 281 280 280 279 280 281 282 281 282 282 282 282 283 283 284 284 285 284 285
280 280 281 281 281 281 281 280 280 280 280 280 281 281 281 281 282 283 284 285 285 285
278 279 280 279 279 279 280 279 279 279 279 280 280 281 281 281 282 282 283 283 284 285
279 279 279 278 278 278 278 279 278 278 279 279 279 280 279 280 281 281 282 283 283 284
278 279 278 279 279 279 278 278 278 277 277 276 278 281 282 282 280 281 281 281 283 283
276 277 277 277 277 276 276 276 275 276 276 276 276 280 281 281 279 279 279 280 281 282
275 273 274 273 273 273 273 272 273 273 274 274 275 279 279 280 277 277 277 278 279 280
271 269 269 268 268 269 269 268 268 270 270 270 271 275 276 276 275 275 275 276 276 277
269 266 266 266 265 265 265 266 266 266 266 266 266 270 272 273 271 270 272 273 275 277
266 264 263 263 264 263 262 263 262 263 263 264 265 266 270 272 271 270 270 271 272 274

GFSNIL_sfc_thetae_024.txt.gz
Theta_e
282 282 282 282 282 282 282 283 284 284 285 285 286 286 287 287 287 287 289 289 290 291
282 281 280 280 280 281 281 283 282 282 282 283 283 284 284 284 284 284 284 285 286 287
282 281 281 280 279 279 279 280 280 281 281 282 281 281 281 282 283 283 283 285 284 284
281 282 281 280 280 280 279 279 280 280 280 280 280 280 280 280 280 281 282 282 283 283
281 280 279 280 280 279 280 281 279 279 279 279 279 280 279 279 279 279 280 281 282 282
279 278 278 279 279 279 279 279 279 279 278 278 278 278 279 279 279 280 280 281 281 281
278 278 277 278 277 277 278 277 278 278 278 278 278 278 278 278 278 279 280 281 281 282
278 278 277 277 277 277 278 277 277 277 277 277 277 278 277 278 278 278 278 279 280 281
276 276 276 276 276 276 275 274 274 274 274 274 276 279 280 280 278 278 277 277 278 279
274 273 274 273 272 272 271 271 271 271 271 271 272 276 277 278 276 276 276 276 277 277
272 270 270 270 269 269 269 268 268 268 268 268 269 273 274 274 272 272 272 273 275 276
269 266 267 265 266 266 266 265 265 266 265 265 265 270 271 272 270 270 270 271 272 272
267 263 264 264 264 264 263 264 265 264 264 264 263 267 270 271 268 267 268 270 271 273
265 263 263 262 263 262 261 262 261 261 262 262 263 264 269 271 269 268 267 267 269 270

GFSNIL_sfc_thetae_027.txt.gz
Theta_e
280 280 280 279 279 280 280 280 281 281 281 281 282 282 282 282 282 283 283 284 285 288
280 279 279 279 279 278 279 281 280 279 279 280 280 280 280 280 279 280 281 282 283 283
280 280 279 278 278 278 278 278 279 278 278 279 279 280 280 279 279 279 279 280 281 281
279 279 279 278 278 278 278 278 279 279 279 278 278 278 278 278 278 278 278 279 278 280
279 278 278 278 278 278 278 278 278 279 278 278 278 278 277 277 277 277 277 278 279 279
278 277 277 277 277 278 277 277 277 278 277 277 277 277 277 277 277 277 277 278 278 278
277 277 277 277 276 276 276 276 275 275 275 275 276 276 276 276 276 277 277 278 278 278
277 276 276 275 275 274 274 274 273 273 273 273 274 275 275 275 275 276 276 277 278 278
275 275 274 273 272 272 272 271 271 271 270 270 272 274 276 275 274 274 274 274 275 276
272 271 271 270 270 270 269 269 268 268 268 268 268 272 274 274 272 271 271 271 272 273
270 268 268 268 267 267 267 266 266 266 266 266 267 271 272 273 271 270 270 270 270 271
268 265 266 263 264 265 265 264 264 265 264 263 264 269 271 271 269 269 268 269 270 270
267 262 262 263 263 263 262 264 264 264 263 263 262 267 269 270 268 267 268 269 270 272
265 262 261 261 262 261 260 262 260 261 261 261 263 263 269 271 269 268 268 268 269 270

GFSNIL_sfc_thetae_030.txt.gz
Theta_e
279 278 278 278 278 277 278 278 278 278 278 278 279 279 279 279 279 279 279 279 280 283
278 278 277 277 277 277 278 279 278 278 277 278 278 278 278 277 277 277 278 278 279 280
278 278 277 277 277 277 278 278 278 278 277 277 277 277 277 276 277 276 277 278 277 278
278 277 278 277 277 277 277 277 278 278 277 277 277 276 276 275 276 276 276 276 277 277
278 278 277 277 277 277 277 277 277 277 277 276 276 276 275 275 275 275 275 276 276 276
278 277 276 276 277 277 276 276 275 275 274 274 274 274 275 275 275 276 276 276 276 276
277 276 276 276 275 275 274 273 273 273 273 273 273 273 274 274 274 274 274 275 275 276
276 275 275 274 273 272 272 272 272 271 271 271 271 273 273 273 273 273 273 273 273 274
274 274 272 272 271 271 271 270 270 269 269 268 270 273 275 275 273 272 271 270 271 272
271 271 270 270 269 269 268 268 267 267 267 267 267 272 274 274 272 271 270 270 270 270
270 268 268 267 266 266 266 266 265 265 265 266 267 271 272 273 271 270 269 269 269 269
268 265 266 263 264 264 264 264 263 265 263 263 263 269 271 271 270 269 269 269 270 270
267 262 262 264 262 262 261 264 264 264 263 262 262 267 270 271 269 267 268 269 270 272
265 262 261 260 261 259 259 261 259 260 261 261 262 263 269 272 271 269 269 269 270 271

GFSNIL_sfc_thetae_033.txt.gz
Theta_e
281 281 280 280 280 280 280 281 281 281 281 281 281 281 281 281 281 281 281 280 281 282
280 280 279 280 280 280 280 281 280 280 279 280 280 280 279 279 279 280 280 280 280 280
279 279 280 280 279 279 279 280 279 279 279 279 279 279 278 278 278 278 279 279 279 279
280 280 280 279 279 279 279 279 278 278 278 278 277 277 277 277 277 277 277 278 278 278
280 280 279 278 279 279 278 278 277 276 276 276 276 276 275 275 276 276 276 276 277 277
279 279 278 278 278 277 276 276 275 275 274 274 274 274 274 275 275 275 275 275 275 275
279 278 277 277 276 275 274 274 273 273 273 273 273 273 274 274 274 274 275 274 274 274
279 277 276 275 274 273 273 272 272 272 271 271 271 273 274 274 274 273 273 273 273 273
277 275 274 273 272 272 271 270 270 270 269 269 270 273 275 275 273 273 272 271 272 272
274 273 272 271 270 270 269 269 268 268 268 267 268 272 275 275 273 272 271 270 270 270
272 270 269 269 268 268 267 267 266 266 266 267 267 272 273 274 272 271 270 270 270 270
271 268 268 266 266 266 266 265 264 266 265 264 264 269 272 272 271 270 269 270 271 271
269 265 265 266 265 265 264 265 265 264 264 263 263 267 271 272 271 269 270 271 271 273
267 265 264 263 264 262 261 263 260 261 262 262 263 264 270 272 272 271 271 272 272 272

GFSNIL_sfc_thetae_036.txt.gz
Theta_e
287 287 286 286 286 286 285 285 285 285 284 284 284 284 284 284 284 284 284 284 284 284
286 286 285 285 286 285 285 284 284 283 283 283 283 283 283 283 282 283 283 283 283 283
285 285 285 285 284 284 284 283 283 283 282 282 282 282 282 282 282 282 282 282 282 282
285 285 285 285 284 284 283 282 281 281 281 280 280 280 280 280 280 280 280 281 280 280
285 285 284 284 283 283 282 281 280 279 279 279 279 279 278 278 279 278 278 278 278 278
285 284 284 283 282 281 280 279 279 278 278 277 277 277 278 278 278 278 278 278 277 277
285 284 283 282 281 280 279 278 277 277 276 276 276 276 277 277 277 278 278 277 277 276
285 284 282 281 279 278 277 277 276 276 275 275 275 275 276 277 277 277 276 276 276 276
284 282 280 278 277 276 275 274 274 273 273 272 273 273 275 276 276 275 275 274 274 274
282 279 278 277 275 274 274 273 273 272 272 272 272 272 275 275 275 274 274 273 273 273
279 278 276 274 274 273 273 272 272 272 271 271 271 272 273 274 274 274 273 273 273 272
278 276 274 273 273 273 272 271 271 271 270 269 269 271 273 273 273 273 273 273 273 273
277 275 273 273 272 272 271 270 270 270 269 268 267 269 271 273 273 272 273 274 274 276
275 273 273 271 271 270 269 268 267 267 268 267 267 268 271 273 273 273 273 274 274 275

GFSNIL_sfc_thetae_039.txt.gz
Theta_e
290 289 289 289 288 288 287 286 286 286 285 285 285 285 285 285 285 285 285 284 284 283
288 288 287 288 288 287 287 285 285 285 284 284 284 284 284 284 284 284 285 284 284 284
287 288 287 287 286 286 285 285 284 284 284 283 283 283 283 283 284 282 283 283 282 282
287 287 287 286 286 285 285 284 283 283 282 282 281 281 281 281 281 280 281 281 281 280
287 286 286 285 285 285 284 283 282 281 281 280 280 280 279 279 280 279 279 279 279 279
286 286 286 285 284 284 283 282 281 280 279 279 279 278 279 279 279 279 279 279 278 278
286 286 286 285 284 282 282 281 280 279 279 278 278 277 278 278 278 278 279 279 278 277
286 286 285 284 283 281 280 280 279 278 277 277 276 276 276 277 277 277 277 277 277 277
286 284 283 282 280 279 278 277 277 276 275 275 276 276 276 277 276 276 276 275 276 275
284 282 281 280 279 277 277 277 276 275 275 274 275 276 276 277 276 275 275 275 274 274
282 281 280 278 277 277 277 275 275 274 274 274 274 275 275 275 275 275 275 275 274 274
282 280 279 276 276 276 276 275 274 274 273 272 272 274 274 275 274 274 274 275 275 275
281 279 278 277 276 276 275 275 274 273 273 271 270 273 274 274 273 272 274 275 275 277
280 278 278 276 276 274 273 272 271 271 271 270 270 269 273 274 273 273 273 274 274 275

GFSNIL_sfc_thetae_042.txt.gz
Theta_e
286 285 284 284 284 283 282 282 282 281 281 281 281 281 281 280 280 280 279 279 279 280
284 284 283 284 283 282 282 283 281 281 280 280 280 280 280 279 278 278 279 278 278 279
284 284 283 283 282 281 280 281 280 280 280 279 279 278 278 278 278 277 277 278 277 277
283 283 283 282 281 281 280 280 279 279 279 278 278 277 277 277 277 276 276 276 276 276
283 282 281 281 281 280 279 279 278 278 278 278 277 277 276 276 276 276 276 276 276 275
281 281 281 280 280 280 279 278 278 277 277 277 277 276 276 276 276 276 276 276 276 275
281 281 280 280 279 279 278 277 277 277 276 276 276 276 276 276 276 276 276 277 276 275
281 281 281 280 279 278 278 277 277 276 275 275 275 276 275 276 275 275 275 275 276 275
282 281 280 279 278 277 277 276 275 275 274 273 275 278 277 277 275 276 275 274 275 274
282 281 279 278 277 276 275 275 274 273 273 273 273 278 278 277 276 275 274 274 275 274
281 279 277 277 276 275 274 273 273 272 273 272 273 278 278 277 275 274 274 274 274 274
280 278 277 276 274 274 273 272 271 272 270 270 270 277 277 276 273 273 273 275 274 274
280 279 277 276 273 272 271 273 273 272 270 269 267 275 277 276 273 267 272 273 275 277
279 279 277 273 271 272 269 272 269 269 268 268 268 268 275 277 274 271 270 271 272 274

GFSNIL_sfc_thetae_045.txt.gz
Theta_e
285 285 284 284 283 282 281 281 281 280 280 280 280 280 280 279 279 279 278 278 278 279
284 284 284 283 282 282 281 282 280 280 279 279 279 279 279 278 277 277 277 277 277 277
283 284 283 283 281 281 280 280 279 279 279 278 278 278 278 277 277 276 276 277 276 276
283 283 282 282 281 280 280 279 279 279 278 278 277 277 276 276 276 276 276 276 276 276
282 282 281 281 280 279 279 279 278 278 278 277 277 277 276 276 276 275 276 276 276 275
281 281 280 280 279 279 278 278 277 277 277 277 276 276 276 276 276 276 276 276 275 275
280 280 280 279 279 278 278 277 277 276 276 276 276 276 276 276 276 276 276 276 276 275
281 280 279 279 279 278 278 277 276 276 276 275 275 276 275 275 275 275 275 275 276 275
281 281 280 280 279 278 277 277 276 275 274 274 276 279 280 277 275 276 275 274 275 275
282 281 280 280 279 277 277 275 274 274 274 273 274 280 280 280 276 275 274 274 274 275
282 281 279 278 278 277 276 274 274 273 273 273 273 279 280 280 276 274 274 274 274 274
282 281 279 278 277 276 275 273 273 272 271 271 271 279 280 279 274 274 273 274 274 274
282 281 279 279 276 273 274 274 273 273 271 271 269 277 279 279 274 269 272 272 274 276
280 280 279 277 274 271 272 272 270 271 271 269 270 269 278 279 275 272 269 270 271 273

GFSNIL_sfc_thetae_051.txt.gz
Theta_e
287 286 284 283 282 282 281 280 279 280 280 280 280 279 279 279 279 278 278 278 278 278
286 285 283 281 281 280 279 280 279 279 279 279 279 279 279 278 277 277 277 277 277 277
284 283 282 281 280 279 279 279 279 279 279 278 278 278 278 277 277 277 276 276 276 276
282 282 282 281 280 279 279 279 279 279 279 279 278 277 277 277 277 276 276 276 276 276
282 281 281 280 279 279 279 279 279 279 279 278 278 278 277 276 276 276 276 276 275 275
281 281 280 280 279 280 279 279 279 279 278 278 278 278 277 277 277 276 276 276 275 275
281 281 281 280 280 279 279 279 279 278 278 278 278 278 277 277 276 276 276 276 276 275
282 282 281 280 280 280 279 279 279 278 278 278 277 278 277 277 276 275 275 275 276 275
282 281 281 280 279 279 279 278 278 277 277 276 277 281 282 278 276 275 275 274 274 275
282 281 281 280 279 279 278 278 277 277 277 276 277 282 284 283 276 275 275 274 275 275
281 281 280 280 279 279 278 277 277 277 277 277 276 282 284 284 277 275 275 274 274 274
282 281 280 280 279 279 278 277 278 278 277 277 277 282 283 283 277 276 275 275 274 274
282 282 280 280 280 280 279 279 278 278 278 277 277 281 283 283 277 273 274 274 274 277
282 282 282 281 281 280 279 278 277 277 276 275 274 274 282 283 276 275 271 273 273 274

GFSNIL_sfc_thetae_054.txt.gz
Theta_e
289 289 288 286 285 284 283 281 280 279 279 279 279 279 279 279 279 279 278 278 278 278
289 288 286 285 284 283 280 281 279 279 279 279 279 279 279 279 278 278 278 278 278 278
288 287 285 284 282 282 279 280 279 278 278 278 279 279 279 278 278 277 277 277 277 277
285 285 284 283 282 280 280 279 279 279 279 279 278 278 278 278 278 277 277 277 277 276
284 284 283 282 281 279 279 279 279 279 279 279 279 278 278 278 277 277 276 276 276 275
283 283 283 281 279 279 279 279 279 279 279 279 279 278 278 278 278 277 277 277 276 275
283 283 282 281 280 279 279 279 279 279 279 279 279 279 279 278 277 277 278 277 276 275
283 283 282 280 280 280 279 279 279 279 279 279 278 278 278 278 277 277 276 276 276 276
281 281 280 280 280 279 279 279 279 278 278 277 278 282 283 279 277 277 276 275 275 275
281 281 281 281 280 279 279 279 278 278 277 277 278 283 284 283 277 277 275 275 275 275
281 281 281 280 279 279 279 278 278 277 278 278 278 284 285 285 277 276 276 275 275 275
282 281 280 280 279 279 278 278 278 278 278 278 278 283 284 284 280 278 276 276 275 275
282 281 280 281 279 279 279 279 278 278 279 278 279 282 284 284 280 278 277 276 276 278
282 281 282 281 281 279 279 278 278 278 278 279 279 279 284 286 280 279 277 276 274 275

GFSNIL_sfc_thetae_057.txt.gz
Theta_e
294 294 293 292 290 288 287 285 284 284 284 283 283 283 284 284 283 283 283 283 283 282
292 292 292 290 288 287 286 284 283 284 283 283 282 283 283 283 282 283 282 282 282 281
292 291 290 288 286 285 284 283 282 282 282 282 282 282 282 281 281 282 281 281 280 280
289 289 288 287 285 284 283 282 281 282 281 281 281 281 281 281 281 281 280 280 280 279
289 287 286 285 284 283 282 282 281 281 281 281 281 281 281 280 280 280 279 279 279 278
287 286 286 284 283 282 282 281 281 281 281 281 280 280 281 280 280 280 279 279 278 278
286 286 286 284 283 282 281 280 281 281 281 281 280 280 280 280 280 279 279 279 279 278
285 286 285 283 282 281 281 281 281 280 280 280 280 280 280 279 279 278 278 278 278 278
284 284 283 282 281 280 280 280 280 279 279 279 279 283 283 280 279 278 278 277 277 278
283 283 283 282 281 280 279 279 279 279 279 279 279 284 285 283 279 279 277 277 277 277
283 282 282 281 280 280 280 279 279 279 279 279 279 285 285 284 279 278 278 277 277 277
283 281 281 280 280 280 279 279 279 279 279 279 279 285 286 285 281 278 278 277 277 277
282 281 280 281 280 280 280 280 279 279 279 279 279 285 286 286 283 280 279 278 277 278
282 281 281 281 281 280 279 279 279 278 278 279 280 282 287 287 282 281 280 280 278 278

GFSNIL_sfc_thetae_060.txt.gz
Theta_e
310 307 307 305 305 301 299 296 292 288 288 290 292 296 296 295 294 292 292 290 289 288
306 305 304 301 302 300 297 292 288 287 287 287 288 292 291 291 288 290 289 289 288 287
302 303 299 298 297 296 295 290 286 286 285 286 286 289 289 289 288 288 287 287 286 285
302 299 298 296 297 294 291 287 285 284 285 284 284 288 288 287 287 286 285 285 285 284
300 298 296 295 295 292 289 286 284 284 283 284 284 286 287 285 285 285 284 284 283 282
298 296 294 293 293 290 288 285 283 283 282 283 283 285 286 285 285 285 284 283 282 281
297 295 293 292 290 288 286 284 283 282 283 283 283 284 284 284 284 284 283 283 282 281
296 295 292 289 287 285 285 283 282 282 282 282 282 283 283 283 283 282 282 281 281 281
294 291 289 287 286 283 283 283 282 281 281 281 281 284 285 283 282 282 281 280 279 280
290 288 287 286 284 282 282 282 281 281 281 280 281 285 285 284 281 281 281 280 279 279
287 287 286 285 283 282 282 281 281 280 281 281 281 286 286 283 281 281 280 280 280 280
287 286 285 284 283 282 281 281 281 281 280 280 280 286 286 283 281 281 280 280 280 281
287 285 284 284 284 284 282 281 280 280 281 281 281 286 286 283 282 281 280 279 279 281
285 284 285 284 284 283 281 280 279 279 279 280 282 284 286 286 284 285 283 282 281 281

GFSNIL_sfc_thetae_063.txt.gz
Theta_e
312 312 313 313 308 303 302 300 296 294 294 296 298 300 301 298 298 299 299 296 292 290
311 311 311 310 312 308 305 302 298 294 292 292 294 296 297 296 294 296 294 292 291 289
309 310 311 310 309 308 307 300 296 292 289 289 291 291 292 291 289 292 290 289 288 287
307 308 308 307 305 303 300 295 292 290 287 287 288 288 289 288 288 288 287 287 286 285
306 305 304 304 302 299 296 292 291 289 288 287 286 286 287 286 286 286 285 285 284 283
303 303 302 302 300 297 293 290 290 288 287 285 284 285 286 285 285 285 285 284 283 281
302 301 301 301 298 294 291 289 287 286 285 284 284 284 284 284 284 284 284 283 283 281
301 301 300 298 296 292 290 288 286 285 284 283 283 283 283 283 283 283 282 282 282 282
298 296 295 293 290 288 287 285 284 283 283 282 282 287 287 284 282 282 281 280 281 281
293 292 292 290 287 286 285 284 283 282 282 282 282 287 287 286 282 281 281 280 280 280
291 290 289 287 286 285 284 283 282 282 282 282 282 287 287 285 282 281 281 281 280 281
290 288 287 285 285 284 284 283 282 283 282 282 281 287 287 283 282 281 281 281 281 283
288 287 286 286 285 285 284 283 282 281 282 282 281 287 286 283 282 280 280 281 280 282
287 286 286 285 285 284 283 281 280 280 281 281 283 285 286 284 282 281 281 280 279 280

GFSNIL_sfc_thetae_066.txt.gz
Theta_e
307 306 307 307 306 304 302 302 300 300 301 302 303 304 304 301 300 299 297 295 293 289
305 306 306 306 306 304 301 301 299 297 298 300 301 302 303 300 299 298 295 294 289 286
304 304 305 305 303 302 301 298 294 294 295 295 296 298 299 296 293 293 291 289 287 285
301 302 304 304 302 302 299 296 295 295 293 292 292 293 295 293 290 291 288 287 286 284
301 301 301 301 301 298 296 291 290 289 290 289 291 291 292 289 290 288 286 285 284 283
299 299 299 298 298 295 292 288 287 287 286 287 288 288 289 289 288 287 286 285 283 282
297 299 299 298 296 293 290 287 286 286 287 287 286 286 287 287 286 285 285 284 283 282
296 297 297 294 292 289 287 287 286 285 285 285 285 285 285 285 285 284 283 282 281 282
294 292 291 290 289 287 286 285 284 284 284 283 284 288 289 286 284 283 282 281 281 282
289 288 289 288 287 285 284 282 282 283 283 282 283 288 289 287 283 282 282 281 281 281
286 286 285 285 284 283 282 282 281 282 282 283 282 287 289 286 282 282 281 281 281 281
285 284 283 283 282 280 280 280 282 283 283 282 282 287 288 286 282 281 280 281 281 282
284 283 282 282 281 279 278 280 281 282 283 282 282 287 288 285 282 280 279 280 282 284
282 280 280 279 278 278 278 281 280 280 281 281 282 285 288 286 281 280 279 279 279 283

GFSNIL_sfc_thetae_069.txt.gz
Theta_e
305 307 307 305 306 305 304 305 306 305 308 308 308 308 306 303 301 300 298 297 297 295
305 304 305 303 305 306 303 302 300 302 303 304 304 305 305 302 300 299 297 297 296 295
303 304 303 302 302 303 301 300 297 297 300 301 302 303 303 302 300 299 297 297 295 292
300 301 301 302 302 301 299 298 296 295 296 298 299 300 301 301 299 297 297 295 292 289
299 299 300 301 301 299 299 296 295 294 293 294 296 296 298 296 295 295 292 290 288 287
298 298 299 300 298 297 295 293 291 291 291 291 292 293 295 295 293 293 292 289 287 286
298 298 299 298 296 295 293 291 290 289 288 288 289 291 292 292 291 290 290 288 287 285
297 296 295 293 292 291 289 289 287 286 285 284 285 288 288 289 288 288 286 285 284 283
293 291 291 290 290 289 287 286 285 285 285 283 286 289 290 288 287 286 284 283 282 282
289 288 289 289 288 287 286 284 285 283 283 283 284 289 290 289 285 285 284 283 282 281
286 286 285 285 286 285 283 283 283 282 281 282 284 288 290 289 284 284 283 283 282 282
284 285 283 283 283 280 279 279 279 279 279 280 283 287 289 288 283 282 282 282 282 282
285 284 284 283 279 278 277 279 280 279 278 280 283 286 288 288 282 280 280 281 282 283
282 280 279 277 278 277 276 278 279 281 281 282 282 284 288 289 282 281 279 280 281 282

GFSNIL_sfc_thetae_072.txt.gz
Theta_e
307 308 308 305 305 305 306 306 304 306 310 311 312 312 312 308 305 304 301 301 298 298
303 304 305 302 304 305 304 302 300 303 304 307 309 310 310 307 304 303 301 300 298 298
301 302 302 301 302 303 302 300 299 301 303 304 306 306 307 306 304 302 301 300 298 297
299 300 301 302 303 303 301 299 299 298 300 301 302 303 303 304 303 300 300 298 297 295
299 299 299 301 302 299 300 297 298 296 296 297 300 300 300 301 301 298 298 296 296 295
297 297 298 298 298 296 297 294 293 293 294 293 296 297 297 299 299 296 298 297 294 295
296 297 297 296 296 295 294 294 292 292 293 293 292 292 295 295 296 295 295 294 293 293
296 295 294 293 292 291 291 293 291 290 290 290 289 290 289 291 293 292 292 291 290 290
291 290 290 289 289 289 288 288 287 286 288 286 288 291 292 291 289 289 289 287 286 286
286 286 287 288 287 287 287 286 285 285 284 285 285 290 291 291 288 288 288 287 284 283
285 285 285 284 285 285 285 284 284 284 283 284 283 289 290 290 287 285 286 285 284 283
283 284 284 284 283 282 280 278 279 280 281 280 281 288 289 289 286 284 283 283 283 283
282 281 282 283 283 281 277 280 279 279 282 282 282 286 288 288 285 283 281 282 282 283
281 280 279 278 277 275 275 277 280 281 281 282 282 283 287 288 284 282 280 280 280 282

GFSNIL_sfc_thetae_078.txt.gz
Theta_e
306 308 308 307 306 309 309 311 312 316 317 317 317 316 316 313 309 307 305 304 304 302
298 300 303 304 304 305 304 304 304 305 312 314 315 313 314 313 309 308 306 305 304 304
297 297 298 299 300 300 300 300 299 299 300 302 307 311 311 311 311 308 307 305 304 303
295 296 296 297 298 298 298 298 298 297 297 299 299 300 304 306 307 306 306 306 303 302
294 295 295 295 296 296 296 296 296 296 295 296 298 298 299 301 303 303 302 303 303 303
292 292 293 293 293 293 294 293 293 293 293 294 296 299 301 301 301 301 302 302 300 301
288 289 290 290 290 290 290 290 290 291 291 292 292 295 298 299 299 299 300 300 300 299
287 287 286 286 285 286 286 288 288 287 288 288 289 292 293 294 295 295 296 296 296 296
284 284 284 284 284 284 284 285 285 285 285 286 289 292 294 294 292 291 291 292 292 291
283 283 283 283 283 284 284 283 284 283 284 285 285 290 292 292 290 290 290 290 289 287
282 282 282 281 281 282 283 282 282 283 282 282 283 289 290 290 288 288 288 288 288 288
281 280 280 280 280 281 281 281 281 281 280 279 280 286 288 288 285 286 286 286 286 286
280 278 278 279 279 278 278 280 279 279 278 277 277 283 287 287 285 285 285 284 284 284
278 277 277 277 275 277 277 276 275 278 277 276 276 277 285 287 285 284 284 284 282 282

GFSNIL_sfc_thetae_084.txt.gz
Theta_e
307 308 309 310 311 313 315 317 319 318 319 319 320 320 320 318 317 315 312 311 310 310
304 304 305 306 307 307 309 308 308 311 311 313 314 315 315 315 315 313 312 311 310 310
301 301 302 302 301 302 303 304 305 305 306 307 308 310 311 311 312 312 312 312 310 309
299 299 299 299 299 298 299 299 300 301 302 303 304 305 306 307 308 308 308 309 308 307
297 297 297 296 296 296 296 296 296 297 298 299 300 301 301 302 303 304 303 304 304 304
294 294 294 293 293 293 293 294 295 294 294 295 296 297 298 299 300 301 302 302 300 300
293 292 292 292 292 292 292 292 293 293 293 294 294 294 295 296 297 298 298 299 299 298
291 291 291 290 290 290 290 290 290 290 291 292 292 292 292 292 293 293 293 294 294 295
289 288 289 288 287 288 288 288 289 289 289 289 290 290 290 290 291 290 290 290 291 292
287 287 287 286 286 286 287 287 286 287 287 287 289 288 289 289 289 289 289 289 289 289
286 285 285 285 285 285 286 285 286 286 286 286 286 287 288 288 288 289 289 290 288 288
284 283 283 282 283 284 284 284 285 285 285 284 285 286 287 287 287 287 287 288 289 289
282 281 280 281 281 283 283 282 283 283 284 284 284 286 286 286 286 284 285 287 287 286
280 280 281 282 282 281 280 280 281 281 283 284 285 284 285 285 285 284 284 284 284 286

GFSNIL_sfc_thetae_087.txt.gz
Theta_e
309 309 308 309 309 310 310 311 311 311 314 315 316 317 316 316 316 317 315 314 313 312
304 304 304 304 305 305 306 305 306 307 308 309 310 311 312 313 313 312 312 312 312 311
302 302 302 302 301 301 302 301 302 302 303 304 305 307 308 308 310 310 310 309 310 310
300 300 300 299 299 298 299 299 298 298 299 300 300 302 302 303 304 304 305 306 306 305
297 297 297 296 296 297 296 297 297 297 297 297 297 298 298 298 300 300 300 302 303 302
295 294 294 294 294 294 294 294 295 295 295 295 296 295 296 296 296 297 298 298 299 299
293 293 292 292 292 292 292 292 293 293 293 293 293 294 294 294 293 294 295 296 295 295
292 292 291 291 291 290 290 290 291 290 290 291 291 292 291 290 290 290 291 291 292 292
290 289 289 289 288 288 288 289 288 288 288 288 290 291 291 290 288 288 288 288 289 290
288 287 287 286 286 286 286 287 286 287 287 287 288 290 290 289 287 287 287 288 288 288
285 284 284 284 284 285 285 285 285 285 286 286 286 288 288 288 286 286 287 287 287 287
283 282 282 281 282 283 283 283 283 283 283 284 284 287 287 287 285 285 285 286 286 286
281 279 279 280 280 282 282 281 282 281 282 282 283 286 287 287 285 283 283 284 285 285
278 277 277 278 279 279 280 281 281 282 282 282 283 284 286 287 284 283 282 282 283 285